[[{"header":{"parameterUnit":"m.s-1","parameterCategory":1,"la1":30.2991,"la2":30.254,"lo1":-89.0895,"lo2":-89.0444,"dx":0.0017,"dy":0.0017,"nx":28,"ny":28,"refTime":"2022-11-12T09:00:00:Z","depth":0,"parameterNumber":2,"parameterNumberName":"U-component_of_WINDS"},"data":[0,0,0,0,0,0,0,0,0,0,0,0,0,0,0,0,0,0,0,0,0,0,0,0,0,0,0,0,0,0,0,0,0,0,0,0,0,0,0,0,0,0,0,0,0,0,0,0,0,0,0,0,0,0,0,0,0,0,2.3171,2.3171,0,2.317,2.317,2.317,2.3145,2.3144,2.3143,2.3143,2.3141,2.3142,2.3142,0,0,0,0,0,0,0,0,0,0,0,0,0,2.3151,2.3152,2.3171,2.3171,2.3171,2.317,2.317,2.317,2.3145,2.3144,2.3143,2.3142,2.3141,2.3142,2.3142,0,0,0,0,0,0,0,0,0,0,0,0,0,2.3156,2.3152,2.3171,2.3158,2.3157,2.317,2.317,2.317,2.3145,2.3144,2.3143,2.3142,2.3141,2.3142,2.3142,2.3167,0,0,2.3145,2.3145,0,0,0,0,0,0,0,0,2.3156,2.3157,2.316,2.3159,2.3158,2.3156,2.3162,2.3169,2.3145,2.3149,2.3143,2.3142,2.3147,2.3147,2.3149,2.3167,2.3167,2.3145,2.3146,2.3146,2.3146,0,0,0,0,0,0,0,2.3155,2.3157,2.317,2.316,2.3159,2.3153,2.3152,2.3163,2.3154,2.3149,2.3147,2.3147,2.3146,2.3148,2.3149,2.3167,2.3145,2.3146,2.3146,2.3147,2.3206,2.3207,0,0,0,0,0,0,2.3157,2.3156,2.317,2.317,2.3154,2.3154,2.3153,2.3158,2.3153,2.3152,2.3148,2.3146,2.3148,2.3148,2.3149,2.3178,2.3146,2.3147,2.3147,2.3205,2.3206,2.3207,0,0,0,0,0,0,2.3156,2.3158,2.317,2.3163,2.3164,2.3155,2.316,2.3158,2.316,2.3153,2.3151,2.3152,2.3147,2.3148,2.3163,2.3177,2.3147,2.3148,2.3204,2.3205,2.3207,2.3236,0,0,0,0,0,0,2.3156,2.3158,2.3167,2.3163,2.3165,2.3184,2.3161,2.3159,2.3162,2.3159,2.3156,2.3155,2.3146,2.3162,2.3164,2.3178,2.3149,2.3202,2.3205,2.3206,2.3233,2.3238,2.3242,0,0,0,0,0,2.3155,2.3175,2.3168,2.317,2.3176,2.3185,2.3186,2.3176,2.3163,2.3172,2.3168,2.3155,2.3176,2.3164,2.3166,2.318,2.3201,2.3204,2.3206,2.3232,2.3237,2.3242,0,0,0,0,0,0,2.318,2.3174,2.3166,2.3185,2.3186,2.3181,2.3192,2.3182,2.3186,2.3183,2.317,2.317,2.3188,2.3186,2.3172,2.3205,2.3186,2.3189,2.3205,2.321,2.3215,2.3214,2.3149,0,0,0,0,0,2.3188,2.3197,2.3191,2.3208,2.3209,2.3201,2.3205,2.3197,2.3197,2.3197,2.3194,2.3194,2.3201,2.3206,2.3211,2.3234,2.3233,2.3245,2.3249,2.3253,2.3255,2.3267,2.3273,2.3215,2.3215,2.3215,0,0,2.3204,2.3202,2.3208,2.3213,2.3213,2.3222,2.3201,2.3211,2.3218,2.3199,2.3213,2.3211,2.3211,2.323,2.3238,2.3229,2.3271,2.3256,2.3259,2.3259,2.327,2.3276,2.3281,2.3217,2.3217,2.3216,0,0,2.3238,2.3237,2.3252,2.3252,2.3253,2.3247,2.3251,2.3248,2.3246,2.326,2.3246,2.3254,2.3266,2.3266,2.3268,2.3305,2.3293,2.3307,2.3329,2.3341,2.3346,2.335,2.3363,2.3368,2.331,2.331,2.331,0,2.3257,2.3271,2.326,2.3272,2.3275,2.3259,2.3274,2.3275,2.3277,2.3279,2.3269,2.3285,2.3283,2.3303,2.3312,2.3314,2.3318,2.3307,2.3346,2.335,2.3353,2.3366,2.3371,2.3311,2.3311,2.3311,2.3311,0,2.3295,2.3305,2.3317,2.332,2.3324,2.3337,2.333,2.3335,2.3328,2.3324,2.3339,2.3338,2.3343,2.3347,2.334,2.3366,2.336,2.3348,2.333,2.3361,2.3372,2.3377,2.3314,2.3313,2.3313,2.3312,0,0,2.3343,2.3341,2.3346,2.3347,2.3347,2.3355,2.3368,2.3374,2.3379,2.3382,2.3392,2.3404,2.3393,2.3395,2.3388,2.3399,2.3428,2.3386,2.3385,2.3393,2.3457,2.3466,2.3471,2.3421,2.3422,2.3422,2.3457,0,2.3375,2.3397,2.3389,2.3412,2.3421,2.3407,2.3418,2.342,2.3417,2.3424,2.3421,2.3429,2.3414,2.3416,2.3426,2.3422,2.344,2.342,2.343,2.3431,2.343,2.3477,2.3486,2.3519,2.3461,2.3462,2.3463,0,2.3416,2.3421,2.3444,2.3444,2.3448,2.3458,2.3463,2.3471,2.3472,2.347,2.3473,2.3464,2.3477,2.3459,2.3478,2.3464,2.3468,2.3467,2.3468,2.3468,2.3448,2.3478,2.3529,2.3534,2.347,2.3469,2.3469,0,2.3448,2.3461,2.3477,2.3479,2.3479,2.3486,2.3487,2.3488,2.3492,2.3497,2.35,2.3506,2.351,2.3515,2.3508,2.3495,2.3527,2.3509,2.3525,2.3525,2.3531,2.3531,2.3583,2.3535,2.3535,2.3535,2.3535,0,2.3485,2.35,2.3492,2.3501,2.3518,2.3509,2.3526,2.3525,2.3526,2.3536,2.3524,2.3533,2.3523,2.3532,2.3527,2.3543,2.3544,2.3542,2.354,2.3543,2.3543,2.3545,2.3542,2.3536,2.3536,2.3536,2.3535,0,2.3523,2.3518,2.3535,2.3534,2.3534,2.3547,2.3546,2.3555,2.3552,2.3564,2.3567,2.3562,2.3571,2.3565,2.3574,2.3571,2.3592,2.3587,2.3591,2.359,2.3606,2.3605,2.3661,2.3668,2.3616,2.3616,2.3617,0,2.3547,2.3558,2.3559,2.3565,2.3566,2.3575,2.358,2.3573,2.3578,2.3582,2.3591,2.36,2.3606,2.3622,2.3619,2.3626,2.3621,2.3641,2.3622,2.3625,2.3622,2.3621,2.3622,2.3644,2.3645,2.3645,2.3646,0,2.3589,2.3586,2.3594,2.3601,2.3608,2.3613,2.3617,2.3622,2.3615,2.3622,2.3632,2.3637,2.3647,2.3656,2.3662,2.3663,2.3653,2.3652,2.3656,2.3658,2.366,2.3659,2.3601,2.365,2.365,2.3649,2.3649,2.3649,2.362,2.363,2.3633,2.3642,2.3645,2.3649,2.3658,2.3657,2.3665,2.3673,2.3668,2.368,2.3682,2.369,2.3692,2.3701,2.3693,2.3699,2.3701,2.3702,2.3704,2.3659,2.3702,2.3702,2.3702,2.3702,2.3702,0,2.3662,2.3663,2.3672,2.3679,2.3686,2.3677,2.3682,2.3689,2.37,2.3703,2.371,2.3722,2.3731,2.3729,2.3737,2.3745,2.3741,2.3748,2.3747,2.3747,2.3711,2.3707,2.3751,2.3751,2.3751,2.3751,2.3751,2.3751,2.3684,2.37,2.3699,2.3717,2.3718,2.373,2.3733,2.3737,2.374,2.3754,2.3762,2.3761,2.3763,2.3771,2.3779,2.3779,2.3782,2.379,2.3788,2.3754,2.3749,2.3745,2.374,2.3791,2.3791,2.3823,2.3823,2.3823]},{"header":{"parameterUnit":"m.s-1","parameterCategory":1,"la1":30.2991,"la2":30.254,"lo1":-89.0895,"lo2":-89.0444,"dx":0.0017,"dy":0.0017,"nx":28,"ny":28,"refTime":"2022-11-12T09:00:00:Z","depth":0,"parameterNumber":3,"parameterNumberName":"V-component_of_WINDS"},"data":[0,0,0,0,0,0,0,0,0,0,0,0,0,0,0,0,0,0,0,0,0,0,0,0,0,0,0,0,0,0,0,0,0,0,0,0,0,0,0,0,0,0,0,0,0,0,0,0,0,0,0,0,0,0,0,0,0,0,-6.9309,-6.931,0,-6.939,-6.9391,-6.9392,-6.9334,-6.9332,-6.9329,-6.9327,-6.9405,-6.9409,-6.9413,0,0,0,0,0,0,0,0,0,0,0,0,0,-6.9099,-6.9103,-6.9309,-6.931,-6.9311,-6.939,-6.9391,-6.9392,-6.9335,-6.9332,-6.9329,-6.9326,-6.9403,-6.9409,-6.9414,0,0,0,0,0,0,0,0,0,0,0,0,0,-6.9186,-6.9105,-6.9309,-6.9292,-6.9291,-6.939,-6.9391,-6.9392,-6.9335,-6.9332,-6.9328,-6.9324,-6.9402,-6.9408,-6.9415,-6.9532,0,0,-6.9435,-6.9438,0,0,0,0,0,0,0,0,-6.9181,-6.9194,-6.9293,-6.9293,-6.9293,-6.9348,-6.9346,-6.9439,-6.9336,-6.9318,-6.9327,-6.9322,-6.9389,-6.9396,-6.942,-6.9536,-6.9539,-6.9436,-6.944,-6.9443,-6.9444,0,0,0,0,0,0,0,-6.9175,-6.919,-6.9341,-6.9295,-6.9294,-6.9279,-6.9287,-6.9363,-6.9374,-6.932,-6.9316,-6.9326,-6.9388,-6.9413,-6.9421,-6.9541,-6.9435,-6.9441,-6.9445,-6.9448,-6.9757,-6.9761,0,0,0,0,0,0,-6.9171,-6.9185,-6.9338,-6.9343,-6.9227,-6.9286,-6.9295,-6.9334,-6.9373,-6.9375,-6.933,-6.9323,-6.9404,-6.9413,-6.9424,-6.9564,-6.9442,-6.9449,-6.9453,-6.9753,-6.9758,-6.9763,0,0,0,0,0,0,-6.9167,-6.9186,-6.9335,-6.9263,-6.9281,-6.9293,-6.9338,-6.9338,-6.9363,-6.9381,-6.9382,-6.9354,-6.9401,-6.9414,-6.9506,-6.9566,-6.9452,-6.9458,-6.9748,-6.9755,-6.9761,-6.9846,0,0,0,0,0,0,-6.9161,-6.9184,-6.923,-6.9265,-6.9285,-6.9418,-6.9342,-6.9342,-6.9376,-6.9368,-6.9404,-6.9406,-6.9399,-6.9497,-6.9513,-6.9573,-6.9463,-6.9743,-6.9751,-6.9759,-6.9837,-6.9854,-6.9868,0,0,0,0,0,-6.9154,-6.925,-6.9233,-6.9252,-6.9343,-6.9421,-6.9433,-6.9425,-6.9381,-6.9426,-6.9437,-6.9405,-6.9557,-6.9506,-6.9524,-6.9587,-6.9739,-6.9749,-6.9758,-6.9831,-6.9851,-6.9868,0,0,0,0,0,0,-6.922,-6.9254,-6.9236,-6.9346,-6.9382,-6.9412,-6.9469,-6.9446,-6.9493,-6.9484,-6.9471,-6.9479,-6.9576,-6.959,-6.9534,-6.9703,-6.9641,-6.9654,-6.969,-6.9709,-6.9724,-6.9718,-6.9469,0,0,0,0,0,-6.9248,-6.931,-6.9336,-6.943,-6.9449,-6.9457,-6.949,-6.9481,-6.9516,-6.953,-6.9548,-6.9582,-6.9638,-6.9674,-6.9726,-6.984,-6.9846,-6.9892,-6.9907,-6.992,-6.9931,-6.9992,-7.0012,-6.9794,-6.9794,-6.9794,0,0,-6.9305,-6.9331,-6.9371,-6.9444,-6.9471,-6.9534,-6.9469,-6.9539,-6.9585,-6.954,-6.9629,-6.9643,-6.968,-6.9784,-6.983,-6.9799,-6.9993,-6.9932,-6.9942,-6.9946,-7.0004,-7.0024,-7.0042,-6.98,-6.9799,-6.9798,0,0,-6.9441,-6.9468,-6.955,-6.9578,-6.962,-6.9624,-6.9644,-6.9678,-6.9686,-6.9775,-6.9743,-6.9797,-6.9893,-6.9921,-6.9948,-7.0096,-7.0068,-7.0113,-7.0193,-7.0252,-7.0269,-7.0285,-7.0337,-7.0356,-7.0125,-7.0125,-7.0125,0,-6.9506,-6.9602,-6.9594,-6.9667,-6.97,-6.9665,-6.9746,-6.9774,-6.9829,-6.9852,-6.9817,-6.9938,-6.996,-7.0069,-7.0106,-7.0129,-7.015,-7.0109,-7.0268,-7.0283,-7.0297,-7.0347,-7.0366,-7.013,-7.013,-7.0129,-7.0129,0,-6.968,-6.9747,-6.9808,-6.9865,-6.9904,-6.9981,-6.9984,-7.0025,-7.0012,-7.002,-7.011,-7.0137,-7.0193,-7.0219,-7.0206,-7.0326,-7.0306,-7.027,-7.0207,-7.0323,-7.037,-7.0389,-7.0138,-7.0136,-7.0134,-7.0133,0,0,-6.9858,-6.9912,-6.9934,-6.996,-7.0004,-7.0054,-7.0129,-7.0187,-7.0222,-7.0262,-7.0323,-7.0406,-7.0373,-7.0404,-7.0394,-7.0447,-7.0562,-7.0404,-7.0405,-7.0432,-7.0695,-7.0721,-7.0743,-7.0544,-7.0548,-7.055,-7.0691,0,-6.9997,-7.0129,-7.0125,-7.0248,-7.0309,-7.0277,-7.0342,-7.0376,-7.0385,-7.0437,-7.0446,-7.0505,-7.0458,-7.0476,-7.0526,-7.0537,-7.0614,-7.0527,-7.0599,-7.0602,-7.059,-7.0767,-7.0795,-7.0927,-7.0709,-7.0712,-7.0715,0,-7.0175,-7.0224,-7.0353,-7.0389,-7.0414,-7.0473,-7.0526,-7.0577,-7.0613,-7.0616,-7.0651,-7.0634,-7.0708,-7.0644,-7.0746,-7.0687,-7.0716,-7.0726,-7.0731,-7.0736,-7.0665,-7.0776,-7.0968,-7.0988,-7.0743,-7.0741,-7.0739,0,-7.0292,-7.0389,-7.0479,-7.0502,-7.0546,-7.0588,-7.0608,-7.0641,-7.0676,-7.0722,-7.0744,-7.0797,-7.0825,-7.0866,-7.0863,-7.0817,-7.0966,-7.0902,-7.0969,-7.0969,-7.1,-7.0998,-7.1199,-7.1022,-7.1021,-7.1021,-7.102,0,-7.0446,-7.0526,-7.0532,-7.0588,-7.0677,-7.067,-7.0758,-7.0773,-7.0803,-7.086,-7.0835,-7.0888,-7.0882,-7.0935,-7.0933,-7.1017,-7.103,-7.1033,-7.1031,-7.1035,-7.1035,-7.1053,-7.1043,-7.1026,-7.1025,-7.1024,-7.1023,0,-7.059,-7.0598,-7.0694,-7.0729,-7.0739,-7.0803,-7.0832,-7.0883,-7.0891,-7.0963,-7.098,-7.0991,-7.1053,-7.1054,-7.1124,-7.1122,-7.1225,-7.1213,-7.1213,-7.1211,-7.1277,-7.1271,-7.1496,-7.1525,-7.133,-7.1332,-7.1333,0,-7.0688,-7.0749,-7.0791,-7.0828,-7.0852,-7.0912,-7.0948,-7.0944,-7.0982,-7.1029,-7.1075,-7.1135,-7.1182,-7.1282,-7.1295,-7.1348,-7.1337,-7.1412,-7.1345,-7.1346,-7.1337,-7.1333,-7.1339,-7.1425,-7.1427,-7.1429,-7.143,0,-7.086,-7.0861,-7.0915,-7.0971,-7.1015,-7.1059,-7.1099,-7.113,-7.113,-7.1175,-7.1238,-7.1275,-7.1348,-7.1407,-7.1459,-7.1477,-7.1454,-7.1452,-7.147,-7.1474,-7.1471,-7.1473,-7.1248,-7.1446,-7.1445,-7.1444,-7.1443,-7.1442,-7.0983,-7.1036,-7.1074,-7.1135,-7.1166,-7.1204,-7.1255,-7.127,-7.1324,-7.1383,-7.1378,-7.1448,-7.1483,-7.1551,-7.1574,-7.1628,-7.1601,-7.1628,-7.1634,-7.1641,-7.1648,-7.1464,-7.1637,-7.1637,-7.1636,-7.1636,-7.1636,0,-7.1153,-7.1176,-7.1233,-7.1291,-7.1339,-7.1315,-7.1358,-7.1399,-7.1463,-7.1498,-7.1546,-7.1619,-7.1677,-7.1695,-7.1751,-7.179,-7.1781,-7.1805,-7.1801,-7.1806,-7.1669,-7.1647,-7.1811,-7.1811,-7.1811,-7.1811,-7.1811,-7.1811,-7.1247,-7.1336,-7.1341,-7.1445,-7.1467,-7.1538,-7.1564,-7.1599,-7.1627,-7.1711,-7.1759,-7.1772,-7.1801,-7.1858,-7.1909,-7.1913,-7.1934,-7.1962,-7.1962,-7.1833,-7.1815,-7.1798,-7.1778,-7.1967,-7.1967,-7.2094,-7.2095,-7.2096]}]]